Alice, TX

10:39 PM CDT on September 20, 2017 (GMT -0500)
Alice International

Weather History for KALI - February, 2013

Change the Weather History Date:

Tuesday, February 12, 2013

  Actual Average Record
Temperature  
Mean Temperature 62 °F -  
Max Temperature 70 °F 70 °F 87 °F (2017)
Min Temperature 55 °F 48 °F 28 °F (2011)
Degree Days  
Heating Degree Days 2    
Growing Degree Days 12 (Base 50)    
Moisture  
Dew Point 55 °F    
Average Humidity 87    
Maximum Humidity 100    
Minimum Humidity 53    
Precipitation  
Precipitation 0.00 in - - ()
Sea Level Pressure  
Sea Level Pressure 29.88 in    
Wind  
Wind Speed 8 mph (North)    
Max Wind Speed 12 mph    
Max Gust Speed -    
Visibility 6 miles    
Events Rain    
Averages and records for this station are not official NWS values.
T = Trace of Precipitation, MM = Missing Value Source: NWS Daily Summary

Daily Weather History Graph

Daily Weather History Graph

Search for Another Location

Airport or City:

Trip Planner

Search our weather history database for the weather conditions in past years. The results will help you decide how hot, cold, wet, or windy it might be!

Date:

Astronomy

Feb. 12, 2013 Rise Set
Actual Time 7:11 AM CST 6:21 PM CST
Civil Twilight 6:47 AM CST 6:45 PM CST
Nautical Twilight 6:19 AM CST 7:13 PM CST
Astronomical Twilight 5:52 AM CST 7:40 PM CST
Moon 8:28 AM CST (2/12) 9:02 PM CST (2/12)
Length of Visible Light 11h 58m
Length of Day
11h 10m
Waxing Crescent, 7% of the Moon is Illuminated
Feb 12
Waxing Crescent
Feb 17
First Quarter
Feb 25
Full
Mar 4
Last Quarter
Mar 11
New

Hourly Weather History & Observations

Time (CST) Temp. Dew Point Humidity Pressure Visibility Wind Dir Wind Speed Gust Speed Precip Events Conditions
12:43 AM 55.4 °F 53.6 °F 94% 29.90 in 2.5 mi NNE 10.4 mph - N/A   Overcast
12:53 AM 55.9 °F 54.0 °F 93% 29.91 in 2.5 mi NE 10.4 mph - N/A   Overcast
1:17 AM 55.4 °F 53.6 °F 94% 29.89 in 2.0 mi NE 9.2 mph - N/A   Overcast
1:25 AM 55.4 °F 53.6 °F 94% 29.89 in 1.8 mi NE 11.5 mph - N/A   Overcast
1:44 AM 55.4 °F 53.6 °F 94% 29.90 in 2.0 mi NNE 9.2 mph - N/A   Overcast
1:53 AM 55.9 °F 55.0 °F 97% 29.89 in 2.0 mi NE 6.9 mph - N/A   Overcast
2:00 AM 55.4 °F 55.4 °F 100% 29.90 in 1.8 mi NNE 6.9 mph - N/A   Overcast
2:07 AM 55.4 °F 55.4 °F 100% 29.89 in 2.0 mi NE 6.9 mph - N/A   Overcast
2:18 AM 55.4 °F 55.4 °F 100% 29.89 in 1.8 mi NNE 8.1 mph - N/A   Overcast
2:53 AM 55.9 °F 55.0 °F 97% 29.88 in 1.5 mi NNE 10.4 mph - N/A   Overcast
3:53 AM 55.9 °F 55.0 °F 97% 29.88 in 1.8 mi North 5.8 mph - N/A   Overcast
4:29 AM 55.4 °F 55.4 °F 100% 29.85 in 2.0 mi NNE 9.2 mph - 0.00 in Rain Light Rain
4:53 AM 55.9 °F 55.0 °F 97% 29.85 in 2.5 mi NNE 9.2 mph - 0.00 in   Overcast
5:13 AM 55.4 °F 55.4 °F 100% 29.85 in 3.0 mi NNE 6.9 mph - N/A   Overcast
5:34 AM 55.4 °F 55.4 °F 100% 29.85 in 2.5 mi NNE 6.9 mph - N/A   Overcast
5:46 AM 55.4 °F 55.4 °F 100% 29.85 in 3.0 mi NNE 6.9 mph - N/A   Overcast
5:53 AM 55.9 °F 55.0 °F 97% 29.83 in 4.0 mi NNE 8.1 mph - N/A   Overcast
6:34 AM 57.2 °F 55.4 °F 94% 29.85 in 2.0 mi North 4.6 mph - N/A   Overcast
6:53 AM 57.0 °F 55.0 °F 93% 29.85 in 2.5 mi North 5.8 mph - N/A   Overcast
7:01 AM 57.2 °F 55.4 °F 94% 29.86 in 4.0 mi NNW 3.5 mph - N/A   Overcast
7:53 AM 57.0 °F 55.9 °F 96% 29.87 in 3.0 mi NW 5.8 mph - N/A   Overcast
8:12 AM 57.2 °F 55.4 °F 94% 29.87 in 4.0 mi NNW 8.1 mph - N/A   Overcast
8:53 AM 57.9 °F 55.9 °F 93% 29.89 in 6.0 mi NW 8.1 mph - N/A   Overcast
9:43 AM 59.0 °F 55.4 °F 88% 29.91 in 10.0 mi NNW 6.9 mph - N/A   Overcast
9:53 AM 60.1 °F 57.0 °F 90% 29.89 in 10.0 mi NNW 6.9 mph - N/A   Overcast
10:53 AM 62.1 °F 57.0 °F 84% 29.90 in 10.0 mi NW 6.9 mph - N/A   Overcast
11:06 AM 62.6 °F 57.2 °F 82% 29.93 in 10.0 mi NW 11.5 mph - N/A   Overcast
11:53 AM 62.1 °F 55.9 °F 80% 29.90 in 10.0 mi NNW 11.5 mph - N/A   Overcast
12:53 PM 62.1 °F 55.9 °F 80% 29.88 in 10.0 mi NNW 9.2 mph - N/A   Overcast
1:53 PM 63.0 °F 55.9 °F 78% 29.85 in 10.0 mi NW 9.2 mph - N/A   Overcast
2:29 PM 68.0 °F 57.2 °F 68% 29.85 in 10.0 mi NW 9.2 mph - N/A   Scattered Clouds
2:53 PM 69.1 °F 55.9 °F 63% 29.85 in 10.0 mi NW 6.9 mph - N/A   Clear
3:53 PM 70.0 °F 52.0 °F 53% 29.82 in 10.0 mi North 9.2 mph - N/A   Clear
4:53 PM 70.0 °F 53.1 °F 55% 29.83 in 10.0 mi NNW 10.4 mph - N/A   Clear
5:53 PM 69.1 °F 54.0 °F 58% 29.84 in 10.0 mi Calm Calm - N/A   Clear
6:53 PM 64.0 °F 54.0 °F 70% 29.84 in 10.0 mi NE 4.6 mph - N/A   Clear
7:53 PM 62.1 °F 54.0 °F 75% 29.87 in 10.0 mi ENE 3.5 mph - N/A   Clear
8:53 PM 62.1 °F 55.0 °F 78% 29.90 in 10.0 mi NNW 4.6 mph - N/A   Clear
9:53 PM 60.1 °F 54.0 °F 80% 29.94 in 10.0 mi SSE 3.5 mph - N/A   Clear
10:53 PM 59.0 °F 53.1 °F 81% 29.97 in 10.0 mi Calm Calm - N/A   Clear
11:53 PM 57.9 °F 54.0 °F 87% 30.00 in 10.0 mi Calm Calm - N/A   Clear